| time (UTC) | temp C | wind direction | speed KPH | gust KPH | rain 1hr cm | rain 24hr cm | rain mn cm | humidity % | barometer mb |
| 20260506103525 | 23 | 161 | 0.0 | 0.0 | 0.00 | 0.00 | 0.00 | 95 | 1008.9 |
| 20260506103021 | 23 | 161 | 0.0 | 0.0 | 0.00 | 0.00 | 0.00 | 95 | 1008.9 |
| 20260506102520 | 23 | 161 | 0.0 | 0.0 | 0.00 | 0.00 | 0.00 | 95 | 1008.9 |
| 20260506102017 | 22 | 176 | 0.0 | 0.0 | 0.00 | 0.00 | 0.00 | 95 | 1008.8 |
| 20260506101513 | 22 | 177 | 0.0 | 0.0 | 0.00 | 0.00 | 0.00 | 95 | 1008.7 |
| 20260506101010 | 22 | 172 | 0.0 | 0.0 | 0.00 | 0.00 | 0.00 | 95 | 1008.9 |
| 20260506100509 | 22 | 172 | 0.0 | 0.0 | 0.00 | 0.00 | 0.00 | 95 | 1008.7 |
| 20260506100007 | 22 | 173 | 0.0 | 0.0 | 0.00 | 0.00 | 0.00 | 95 | 1008.9 |
| 20260506095505 | 22 | 175 | 0.0 | 0.0 | 0.00 | 0.00 | 0.00 | 95 | 1008.6 |
| 20260506095000 | 22 | 162 | 0.0 | 0.0 | 0.00 | 0.00 | 0.00 | 95 | 1008.7 |
| 20260506094459 | 22 | 162 | 0.0 | 0.0 | 0.00 | 0.00 | 0.00 | 95 | 1008.6 |
| 20260506093956 | 22 | 162 | 0.0 | 0.0 | 0.00 | 0.00 | 0.00 | 95 | 1008.7 |
| 20260506093454 | 22 | 162 | 0.0 | 0.0 | 0.00 | 0.00 | 0.00 | 94 | 1008.6 |
| 20260506092952 | 22 | 162 | 0.0 | 0.0 | 0.00 | 0.00 | 0.00 | 94 | 1008.4 |
| 20260506092449 | 22 | 162 | 0.0 | 0.0 | 0.00 | 0.00 | 0.00 | 94 | 1008.6 |
| 20260506091946 | 23 | 161 | 0.0 | 0.0 | 0.00 | 0.00 | 0.00 | 94 | 1008.4 |
| 20260506091444 | 23 | 161 | 0.0 | 0.0 | 0.00 | 0.00 | 0.00 | 94 | 1008.4 |
| 20260506090941 | 23 | 141 | 3.2 | 3.2 | 0.00 | 0.00 | 0.00 | 94 | 1008.6 |
| 20260506090439 | 23 | 141 | 3.2 | 3.2 | 0.00 | 0.00 | 0.00 | 94 | 1008.6 |
| 20260506085935 | 23 | 141 | 3.2 | 3.2 | 0.00 | 0.00 | 0.00 | 94 | 1008.5 |
| 20260506085432 | 23 | 164 | 0.0 | 1.6 | 0.00 | 0.00 | 0.00 | 94 | 1008.3 |
| 20260506084928 | 23 | 135 | 3.2 | 3.2 | 0.00 | 0.00 | 0.00 | 94 | 1008.5 |
| 20260506084425 | 23 | 162 | 1.6 | 3.2 | 0.00 | 0.00 | 0.00 | 94 | 1008.7 |
| 20260506083921 | 23 | 152 | 3.2 | 3.2 | 0.00 | 0.00 | 0.00 | 94 | 1008.7 |
| 20260506083419 | 23 | 157 | 3.2 | 3.2 | 0.00 | 0.00 | 0.00 | 94 | 1008.6 |
| 20260506082916 | 23 | 136 | 4.8 | 6.4 | 0.00 | 0.00 | 0.00 | 94 | 1008.7 |
| 20260506082413 | 23 | 156 | 4.8 | 6.4 | 0.00 | 0.00 | 0.00 | 93 | 1008.6 |
| 20260506081908 | 23 | 115 | 4.8 | 6.4 | 0.00 | 0.00 | 0.00 | 93 | 1008.8 |
| 20260506081407 | 23 | 120 | 4.8 | 4.8 | 0.00 | 0.00 | 0.00 | 93 | 1008.9 |
| 20260506080904 | 23 | 162 | 3.2 | 4.8 | 0.00 | 0.00 | 0.00 | 93 | 1008.8 |
| 20260506080401 | 23 | 140 | 4.8 | 6.4 | 0.00 | 0.00 | 0.00 | 93 | 1008.9 |
| 20260506073345 | 24 | 145 | 9.7 | 9.7 | 0.00 | 0.00 | 0.00 | 92 | 1009.2 |
| 20260506072841 | 24 | 156 | 6.4 | 9.7 | 0.00 | 0.00 | 0.00 | 92 | 1009.6 |
| 20260506072339 | 24 | 130 | 6.4 | 6.4 | 0.00 | 0.00 | 0.00 | 92 | 1009.5 |
| 20260506071837 | 24 | 163 | 8.0 | 11.3 | 0.00 | 0.00 | 0.00 | 91 | 1009.5 |
| 20260506071335 | 25 | 149 | 6.4 | 11.3 | 0.00 | 0.00 | 0.00 | 91 | 1009.5 |
| 20260506070831 | 25 | 158 | 4.8 | 4.8 | 0.00 | 0.00 | 0.00 | 91 | 1009.5 |
| 20260506070328 | 25 | 165 | 6.4 | 6.4 | 0.00 | 0.00 | 0.00 | 91 | 1009.6 |
| 20260506062306 | 25 | 147 | 11.3 | 12.9 | 0.00 | 0.00 | 0.00 | 90 | 1009.8 |
| 20260506061801 | 25 | 174 | 9.7 | 11.3 | 0.00 | 0.00 | 0.00 | 90 | 1009.8 |
| 20260506061258 | 25 | 140 | 4.8 | 12.9 | 0.00 | 0.00 | 0.00 | 90 | 1009.8 |
| 20260506060757 | 25 | 165 | 6.4 | 9.7 | 0.00 | 0.00 | 0.00 | 90 | 1009.7 |
| 20260506060254 | 25 | 139 | 6.4 | 6.4 | 0.00 | 0.00 | 0.00 | 90 | 1009.6 |
| 20260506051226 | 25 | 143 | 8.0 | 9.7 | 0.00 | 0.00 | 0.00 | 90 | 1009.7 |
| 20260506050724 | 25 | 152 | 8.0 | 9.7 | 0.00 | 0.00 | 0.00 | 90 | 1009.6 |
| 20260506050221 | 25 | 150 | 8.0 | 11.3 | 0.00 | 0.00 | 0.00 | 90 | 1009.7 |
| 20260506044712 | 25 | 136 | 11.3 | 14.5 | 0.00 | 0.00 | 0.00 | 90 | 1009.5 |
| 20260506044209 | 25 | 162 | 11.3 | 12.9 | 0.00 | 0.00 | 0.00 | 90 | 1009.4 |
| 20260506043706 | 25 | 86 | 8.0 | 12.9 | 0.00 | 0.00 | 0.00 | 90 | 1009.3 |
| 20260506043204 | 25 | 101 | 11.3 | 16.1 | 0.00 | 0.00 | 0.00 | 90 | 1009.3 |
| 20260506042703 | 25 | 156 | 9.7 | 14.5 | 0.00 | 0.00 | 0.00 | 90 | 1009.4 |
| 20260506042200 | 25 | 168 | 9.7 | 12.9 | 0.00 | 0.00 | 0.00 | 90 | 1009.3 |
| 20260506041659 | 25 | 129 | 8.0 | 9.7 | 0.00 | 0.00 | 0.00 | 90 | 1009.5 |
| 20260506041155 | 25 | 175 | 9.7 | 11.3 | 0.00 | 0.00 | 0.00 | 90 | 1009.4 |
| 20260506040653 | 25 | 122 | 11.3 | 12.9 | 0.00 | 0.00 | 0.00 | 90 | 1009.5 |
| 20260506040149 | 25 | 131 | 8.0 | 9.7 | 0.00 | 0.00 | 0.00 | 90 | 1009.4 |
| 20260506035646 | 25 | 103 | 9.7 | 12.9 | 0.00 | 0.00 | 0.00 | 90 | 1009.3 |
| 20260506035143 | 25 | 147 | 8.0 | 16.1 | 0.00 | 0.00 | 0.00 | 90 | 1009.1 |
| 20260506034640 | 25 | 160 | 8.0 | 16.1 | 0.00 | 0.00 | 0.00 | 90 | 1009.2 |
| 20260506034137 | 25 | 151 | 12.9 | 17.7 | 0.00 | 0.00 | 0.00 | 91 | 1009.1 |
| 20260506033634 | 25 | 152 | 6.4 | 6.4 | 0.00 | 0.00 | 0.00 | 91 | 1009.3 |
| 20260506033131 | 25 | 128 | 12.9 | 14.5 | 0.00 | 0.00 | 0.00 | 91 | 1009.4 |
| 20260506032628 | 25 | 141 | 8.0 | 9.7 | 0.00 | 0.00 | 0.00 | 90 | 1009.4 |
| 20260506032125 | 25 | 143 | 8.0 | 11.3 | 0.00 | 0.00 | 0.00 | 90 | 1009.1 |
| 20260506031623 | 25 | 155 | 6.4 | 9.7 | 0.00 | 0.00 | 0.00 | 90 | 1009.3 |
| 20260506031119 | 25 | 145 | 3.2 | 4.8 | 0.00 | 0.00 | 0.00 | 90 | 1009.1 |
| 20260506030618 | 25 | 139 | 6.4 | 6.4 | 0.00 | 0.00 | 0.00 | 90 | 1009.1 |
| 20260506030115 | 25 | 138 | 8.0 | 11.3 | 0.00 | 0.00 | 0.00 | 90 | 1009.0 |
| 20260506025612 | 25 | 149 | 6.4 | 9.7 | 0.00 | 0.00 | 0.00 | 90 | 1009.0 |
| 20260506025107 | 25 | 149 | 4.8 | 6.4 | 0.00 | 0.00 | 0.00 | 90 | 1008.9 |
| 20260506024605 | 25 | 157 | 4.8 | 4.8 | 0.00 | 0.00 | 0.00 | 90 | 1008.9 |
| 20260506024101 | 25 | 159 | 4.8 | 6.4 | 0.00 | 0.00 | 0.00 | 89 | 1008.9 |
| 20260506023557 | 25 | 149 | 8.0 | 9.7 | 0.00 | 0.00 | 0.00 | 89 | 1008.9 |
| 20260506023055 | 25 | 142 | 4.8 | 9.7 | 0.00 | 0.00 | 0.00 | 89 | 1008.6 |
| 20260506022552 | 25 | 158 | 6.4 | 9.7 | 0.00 | 0.00 | 0.00 | 89 | 1008.9 |
| 20260506022049 | 25 | 155 | 4.8 | 4.8 | 0.00 | 0.00 | 0.00 | 89 | 1008.6 |
| 20260506021547 | 25 | 152 | 6.4 | 6.4 | 0.00 | 0.00 | 0.00 | 89 | 1008.7 |
| 20260506021044 | 25 | 136 | 9.7 | 11.3 | 0.00 | 0.00 | 0.00 | 89 | 1008.5 |
| 20260506020541 | 25 | 169 | 6.4 | 6.4 | 0.00 | 0.00 | 0.00 | 88 | 1008.3 |
| 20260506020039 | 25 | 163 | 9.7 | 11.3 | 0.00 | 0.00 | 0.00 | 88 | 1008.4 |
| 20260506015536 | 25 | 142 | 6.4 | 9.7 | 0.00 | 0.00 | 0.00 | 88 | 1008.2 |
| 20260506015033 | 25 | 149 | 8.0 | 12.9 | 0.00 | 0.00 | 0.00 | 88 | 1008.1 |
| 20260506014530 | 25 | 141 | 8.0 | 9.7 | 0.00 | 0.00 | 0.00 | 88 | 1007.9 |
| 20260506014026 | 25 | 155 | 8.0 | 9.7 | 0.00 | 0.00 | 0.00 | 88 | 1008.1 |
| 20260506013524 | 25 | 137 | 8.0 | 11.3 | 0.00 | 0.00 | 0.00 | 88 | 1007.9 |
| 20260506013021 | 25 | 149 | 6.4 | 6.4 | 0.00 | 0.00 | 0.00 | 88 | 1007.9 |
| 20260506012517 | 25 | 155 | 6.4 | 9.7 | 0.00 | 0.00 | 0.00 | 87 | 1007.7 |
| 20260506012014 | 25 | 149 | 12.9 | 17.7 | 0.00 | 0.00 | 0.00 | 87 | 1007.4 |
| 20260506011512 | 25 | 143 | 12.9 | 17.7 | 0.00 | 0.00 | 0.00 | 87 | 1007.6 |
| 20260506011008 | 25 | 161 | 11.3 | 14.5 | 0.00 | 0.00 | 0.00 | 87 | 1007.3 |
| 20260506010507 | 25 | 129 | 9.7 | 11.3 | 0.00 | 0.00 | 0.00 | 87 | 1007.4 |
| 20260506010003 | 25 | 154 | 9.7 | 17.7 | 0.00 | 0.00 | 0.00 | 87 | 1007.3 |
| 20260506005500 | 25 | 174 | 11.3 | 16.1 | 0.00 | 0.00 | 0.00 | 87 | 1007.2 |
| 20260506004956 | 25 | 149 | 6.4 | 11.3 | 0.00 | 0.00 | 0.00 | 86 | 1007.2 |
| 20260506004454 | 25 | 155 | 11.3 | 16.1 | 0.00 | 0.00 | 0.00 | 86 | 1007.3 |
| 20260506003950 | 25 | 164 | 11.3 | 17.7 | 0.00 | 0.00 | 0.00 | 86 | 1007.2 |
| 20260506003446 | 25 | 171 | 14.5 | 17.7 | 0.00 | 0.00 | 0.00 | 86 | 1007.3 |
| 20260506002942 | 26 | 147 | 14.5 | 17.7 | 0.00 | 0.00 | 0.00 | 85 | 1007.0 |
| 20260506002439 | 26 | 135 | 11.3 | 14.5 | 0.00 | 0.00 | 0.00 | 85 | 1007.2 |
| 20260506001934 | 26 | 178 | 12.9 | 14.5 | 0.00 | 0.00 | 0.00 | 84 | 1007.2 |
| 20260506001432 | 26 | 162 | 12.9 | 20.9 | 0.00 | 0.00 | 0.00 | 84 | 1007.2 |
| 20260506000929 | 26 | 145 | 9.7 | 12.9 | 0.00 | 0.00 | 0.00 | 84 | 1007.2 |
| 20260506000426 | 26 | 163 | 9.7 | 17.7 | 0.00 | 0.00 | 0.00 | 84 | 1007.1 |
| 20260505235923 | 26 | 133 | 14.5 | 20.9 | 0.00 | 0.00 | 0.00 | 84 | 1007.2 |
| 20260505235421 | 26 | 146 | 9.7 | 12.9 | 0.00 | 0.00 | 0.00 | 83 | 1007.1 |
| 20260505234918 | 26 | 170 | 8.0 | 20.9 | 0.00 | 0.00 | 0.00 | 82 | 1007.1 |
| 20260505234415 | 26 | 175 | 14.5 | 20.9 | 0.00 | 0.00 | 0.00 | 82 | 1007.3 |
| 20260505233912 | 26 | 134 | 9.7 | 16.1 | 0.00 | 0.00 | 0.00 | 82 | 1007.3 |
| 20260505233410 | 26 | 154 | 14.5 | 16.1 | 0.00 | 0.00 | 0.00 | 82 | 1007.2 |
| 20260505232907 | 26 | 159 | 11.3 | 22.5 | 0.00 | 0.00 | 0.00 | 81 | 1007.4 |
| 20260505232405 | 26 | 165 | 20.9 | 24.1 | 0.00 | 0.00 | 0.00 | 81 | 1007.4 |
| 20260505231901 | 26 | 153 | 8.0 | 16.1 | 0.00 | 0.00 | 0.00 | 81 | 1007.4 |
| 20260505231359 | 26 | 136 | 14.5 | 22.5 | 0.00 | 0.00 | 0.00 | 80 | 1007.4 |
| 20260505230857 | 26 | 173 | 8.0 | 16.1 | 0.00 | 0.00 | 0.00 | 81 | 1007.4 |
| 20260505230354 | 26 | 140 | 11.3 | 17.7 | 0.00 | 0.00 | 0.00 | 80 | 1007.5 |
| 20260505225850 | 27 | 137 | 12.9 | 20.9 | 0.00 | 0.00 | 0.00 | 80 | 1007.3 |
| 20260505225348 | 27 | 143 | 8.0 | 12.9 | 0.00 | 0.00 | 0.00 | 80 | 1007.3 |
| 20260505224842 | 27 | 178 | 11.3 | 14.5 | 0.00 | 0.00 | 0.00 | 79 | 1007.4 |
| 20260505224341 | 27 | 139 | 9.7 | 14.5 | 0.00 | 0.00 | 0.00 | 79 | 1007.3 |
| 20260505223838 | 26 | 162 | 9.7 | 16.1 | 0.00 | 0.00 | 0.00 | 79 | 1007.5 |
| 20260505223334 | 27 | 208 | 14.5 | 20.9 | 0.00 | 0.00 | 0.00 | 79 | 1007.8 |
| 20260505222830 | 27 | 163 | 12.9 | 17.7 | 0.00 | 0.00 | 0.00 | 79 | 1007.6 |
| 20260505222326 | 27 | 136 | 9.7 | 17.7 | 0.00 | 0.00 | 0.00 | 79 | 1007.6 |
| 20260505221824 | 27 | 169 | 14.5 | 16.1 | 0.00 | 0.00 | 0.00 | 78 | 1007.9 |
| 20260505221320 | 27 | 131 | 12.9 | 17.7 | 0.00 | 0.00 | 0.00 | 78 | 1007.6 |
| 20260505220817 | 27 | 158 | 16.1 | 24.1 | 0.00 | 0.00 | 0.00 | 78 | 1007.8 |
| 20260505220314 | 27 | 164 | 3.2 | 9.7 | 0.00 | 0.00 | 0.00 | 79 | 1007.8 |
| 20260505215813 | 27 | 151 | 4.8 | 11.3 | 0.00 | 0.00 | 0.00 | 80 | 1007.8 |
| 20260505215310 | 27 | 169 | 8.0 | 12.9 | 0.00 | 0.00 | 0.00 | 80 | 1007.9 |
| 20260505214808 | 27 | 173 | 12.9 | 16.1 | 0.00 | 0.00 | 0.00 | 79 | 1007.8 |
| 20260505214305 | 27 | 183 | 12.9 | 16.1 | 0.00 | 0.00 | 0.00 | 79 | 1007.9 |
| 20260505213802 | 27 | 162 | 9.7 | 16.1 | 0.00 | 0.00 | 0.00 | 80 | 1007.8 |
| 20260505213300 | 27 | 146 | 9.7 | 25.7 | 0.00 | 0.00 | 0.00 | 79 | 1007.9 |
| 20260505212755 | 27 | 153 | 12.9 | 17.7 | 0.00 | 0.00 | 0.00 | 79 | 1008.1 |
| 20260505212253 | 27 | 149 | 9.7 | 16.1 | 0.00 | 0.00 | 0.00 | 80 | 1008.0 |
| 20260505211749 | 27 | 135 | 14.5 | 17.7 | 0.00 | 0.00 | 0.00 | 80 | 1008.2 |
| 20260505211247 | 27 | 150 | 14.5 | 17.7 | 0.00 | 0.00 | 0.00 | 80 | 1008.1 |
| 20260505210743 | 27 | 167 | 9.7 | 12.9 | 0.00 | 0.00 | 0.00 | 81 | 1008.2 |
| 20260505210240 | 27 | 182 | 8.0 | 12.9 | 0.00 | 0.00 | 0.00 | 80 | 1008.5 |
| 20260505205737 | 27 | 174 | 6.4 | 14.5 | 0.00 | 0.00 | 0.00 | 80 | 1008.4 |
| 20260505205236 | 27 | 175 | 11.3 | 22.5 | 0.00 | 0.00 | 0.00 | 79 | 1008.5 |
| 20260505204731 | 27 | 193 | 9.7 | 16.1 | 0.00 | 0.00 | 0.00 | 79 | 1008.6 |
| 20260505204230 | 27 | 155 | 4.8 | 12.9 | 0.00 | 0.00 | 0.00 | 80 | 1008.7 |
| 20260505203726 | 27 | 173 | 12.9 | 16.1 | 0.00 | 0.00 | 0.00 | 79 | 1008.9 |
| 20260505203223 | 27 | 174 | 8.0 | 11.3 | 0.00 | 0.00 | 0.00 | 79 | 1009.0 |
| 20260505202719 | 27 | 158 | 9.7 | 16.1 | 0.00 | 0.00 | 0.00 | 79 | 1008.9 |
| 20260505202215 | 27 | 155 | 19.3 | 22.5 | 0.00 | 0.00 | 0.00 | 78 | 1009.0 |
| 20260505201712 | 27 | 188 | 9.7 | 14.5 | 0.00 | 0.00 | 0.00 | 79 | 1009.0 |
| 20260505201210 | 27 | 189 | 14.5 | 20.9 | 0.00 | 0.00 | 0.00 | 78 | 1009.2 |
| 20260505200708 | 27 | 174 | 9.7 | 20.9 | 0.00 | 0.00 | 0.00 | 78 | 1009.1 |
| 20260505200204 | 27 | 176 | 12.9 | 22.5 | 0.00 | 0.00 | 0.00 | 77 | 1009.0 |
| 20260505195700 | 27 | 186 | 17.7 | 22.5 | 0.00 | 0.00 | 0.00 | 78 | 1009.2 |
| 20260505195158 | 27 | 171 | 19.3 | 25.7 | 0.00 | 0.00 | 0.00 | 77 | 1009.2 |
| 20260505194655 | 27 | 189 | 14.5 | 17.7 | 0.00 | 0.00 | 0.00 | 77 | 1009.2 |
| 20260505194151 | 27 | 170 | 9.7 | 20.9 | 0.00 | 0.00 | 0.00 | 77 | 1009.3 |
| 20260505193647 | 27 | 187 | 11.3 | 14.5 | 0.00 | 0.00 | 0.00 | 77 | 1009.2 |
| 20260505193144 | 27 | 184 | 12.9 | 17.7 | 0.00 | 0.00 | 0.00 | 77 | 1009.0 |
| 20260505192643 | 27 | 169 | 16.1 | 22.5 | 0.00 | 0.00 | 0.00 | 77 | 1009.1 |
| 20260505192140 | 27 | 117 | 17.7 | 24.1 | 0.00 | 0.00 | 0.00 | 78 | 1009.1 |
| 20260505191639 | 27 | 186 | 9.7 | 16.1 | 0.00 | 0.00 | 0.00 | 79 | 1009.3 |
| 20260505191137 | 27 | 184 | 12.9 | 22.5 | 0.00 | 0.00 | 0.00 | 79 | 1009.3 |
| 20260505190632 | 27 | 159 | 14.5 | 17.7 | 0.00 | 0.00 | 0.00 | 79 | 1009.1 |
| 20260505190127 | 27 | 165 | 14.5 | 20.9 | 0.00 | 0.00 | 0.00 | 79 | 1009.3 |
| 20260505185624 | 27 | 177 | 6.4 | 14.5 | 0.00 | 0.00 | 0.00 | 79 | 1009.5 |
| 20260505185120 | 27 | 153 | 9.7 | 16.1 | 0.00 | 0.00 | 0.00 | 80 | 1009.3 |
| 20260505184617 | 27 | 168 | 16.1 | 17.7 | 0.00 | 0.00 | 0.00 | 80 | 1009.3 |
| 20260505184114 | 27 | 175 | 12.9 | 20.9 | 0.00 | 0.00 | 0.00 | 80 | 1009.4 |
| 20260505183610 | 27 | 150 | 16.1 | 17.7 | 0.00 | 0.00 | 0.00 | 80 | 1009.5 |
| 20260505183108 | 27 | 187 | 12.9 | 20.9 | 0.00 | 0.00 | 0.00 | 79 | 1009.7 |
| 20260505182604 | 27 | 0 | 9.7 | 17.7 | 0.00 | 0.00 | 0.00 | 80 | 1009.6 |
| 20260505182101 | 27 | 172 | 14.5 | 16.1 | 0.00 | 0.00 | 0.00 | 80 | 1009.7 |
| 20260505181558 | 27 | 157 | 9.7 | 16.1 | 0.00 | 0.00 | 0.00 | 81 | 1009.6 |
| 20260505181055 | 27 | 190 | 11.3 | 22.5 | 0.00 | 0.00 | 0.00 | 80 | 1009.8 |
| 20260505180550 | 27 | 181 | 14.5 | 17.7 | 0.00 | 0.00 | 0.00 | 80 | 1009.5 |
| 20260505180049 | 27 | 159 | 9.7 | 12.9 | 0.00 | 0.00 | 0.00 | 81 | 1009.8 |
| 20260505175549 | 27 | 172 | 12.9 | 16.1 | 0.00 | 0.00 | 0.00 | 81 | 1009.7 |
| 20260505175046 | 26 | 153 | 12.9 | 17.7 | 0.00 | 0.00 | 0.00 | 82 | 1009.7 |
| 20260505174543 | 26 | 173 | 8.0 | 14.5 | 0.00 | 0.00 | 0.00 | 81 | 1009.9 |
| 20260505174039 | 26 | 178 | 9.7 | 14.5 | 0.00 | 0.00 | 0.00 | 81 | 1009.8 |
| 20260505173536 | 27 | 193 | 20.9 | 22.5 | 0.00 | 0.00 | 0.00 | 80 | 1010.0 |
| 20260505173033 | 27 | 188 | 16.1 | 20.9 | 0.00 | 0.00 | 0.00 | 81 | 1010.0 |
| 20260505172531 | 26 | 186 | 17.7 | 22.5 | 0.00 | 0.00 | 0.00 | 81 | 1009.9 |
| 20260505172027 | 27 | 198 | 16.1 | 22.5 | 0.00 | 0.00 | 0.00 | 81 | 1009.9 |
| 20260505171522 | 27 | 188 | 16.1 | 22.5 | 0.00 | 0.00 | 0.00 | 81 | 1010.1 |
| 20260505171019 | 26 | 205 | 14.5 | 16.1 | 0.00 | 0.00 | 0.00 | 82 | 1009.8 |
| 20260505170516 | 26 | 120 | 12.9 | 14.5 | 0.00 | 0.00 | 0.00 | 82 | 1009.9 |
| 20260505170013 | 26 | 186 | 9.7 | 17.7 | 0.00 | 0.00 | 0.00 | 82 | 1010.1 |
| 20260505165508 | 26 | 179 | 17.7 | 22.5 | 0.00 | 0.00 | 0.00 | 82 | 1009.8 |
| 20260505165004 | 26 | 214 | 11.3 | 12.9 | 0.00 | 0.00 | 0.00 | 82 | 1010.2 |
| 20260505164500 | 26 | 190 | 17.7 | 17.7 | 0.00 | 0.00 | 0.00 | 82 | 1010.0 |
| 20260505163958 | 26 | 182 | 11.3 | 14.5 | 0.00 | 0.00 | 0.00 | 83 | 1010.0 |
| 20260505163456 | 26 | 150 | 12.9 | 14.5 | 0.00 | 0.00 | 0.00 | 83 | 1010.1 |
| 20260505162955 | 26 | 183 | 16.1 | 17.7 | 0.00 | 0.00 | 0.00 | 83 | 1009.9 |
| 20260505162451 | 26 | 171 | 11.3 | 22.5 | 0.00 | 0.00 | 0.00 | 83 | 1010.0 |
| 20260505161947 | 26 | 181 | 11.3 | 20.9 | 0.00 | 0.00 | 0.00 | 83 | 1010.2 |
| 20260505161444 | 26 | 172 | 16.1 | 17.7 | 0.00 | 0.00 | 0.00 | 83 | 1010.1 |
| 20260505160942 | 26 | 199 | 11.3 | 16.1 | 0.00 | 0.00 | 0.00 | 83 | 1010.0 |
| 20260505160440 | 26 | 187 | 17.7 | 25.7 | 0.00 | 0.00 | 0.00 | 83 | 1010.1 |
| 20260505152916 | 25 | 189 | 9.7 | 14.5 | 0.00 | 0.00 | 0.00 | 85 | 1009.9 |
| 20260505152414 | 25 | 195 | 12.9 | 22.5 | 0.00 | 0.00 | 0.00 | 85 | 1009.9 |
| 20260505151913 | 25 | 185 | 12.9 | 16.1 | 0.00 | 0.00 | 0.00 | 85 | 1009.7 |
| 20260505151410 | 25 | 195 | 6.4 | 12.9 | 0.00 | 0.00 | 0.00 | 85 | 1009.4 |
| 20260505150907 | 25 | 171 | 6.4 | 17.7 | 0.00 | 0.00 | 0.00 | 86 | 1009.6 |
| 20260505150404 | 25 | 161 | 9.7 | 17.7 | 0.00 | 0.00 | 0.00 | 86 | 1009.7 |
| 20260505140334 | 25 | 136 | 8.0 | 11.3 | 0.00 | 0.00 | 0.00 | 88 | 1010.0 |
| 20260505130257 | 23 | 105 | 9.7 | 14.5 | 0.00 | 0.00 | 0.00 | 93 | 1009.4 |
| 20260505124748 | 23 | 147 | 6.4 | 9.7 | 0.00 | 0.00 | 0.00 | 93 | 1009.4 |
| 20260505124245 | 23 | 158 | 6.4 | 6.4 | 0.00 | 0.00 | 0.00 | 94 | 1009.3 |
| 20260505123740 | 22 | 144 | 4.8 | 4.8 | 0.00 | 0.00 | 0.00 | 94 | 1009.3 |
| 20260505123237 | 22 | 167 | 3.2 | 11.3 | 0.00 | 0.00 | 0.00 | 94 | 1009.2 |
| 20260505122734 | 22 | 141 | 4.8 | 12.9 | 0.00 | 0.00 | 0.00 | 94 | 1009.1 |
| 20260505122231 | 22 | 151 | 6.4 | 9.7 | 0.00 | 0.00 | 0.00 | 94 | 1009.0 |
| 20260505121728 | 22 | 148 | 6.4 | 11.3 | 0.00 | 0.00 | 0.00 | 94 | 1008.9 |
| 20260505121224 | 22 | 155 | 6.4 | 9.7 | 0.00 | 0.00 | 0.00 | 94 | 1008.9 |
| 20260505120721 | 22 | 164 | 4.8 | 9.7 | 0.00 | 0.00 | 0.00 | 94 | 1009.0 |
| 20260505120217 | 22 | 117 | 6.4 | 6.4 | 0.00 | 0.00 | 0.00 | 94 | 1008.9 |
| 20260505115715 | 22 | 163 | 4.8 | 4.8 | 0.00 | 0.00 | 0.00 | 94 | 1009.0 |
| 20260505115213 | 22 | 131 | 4.8 | 4.8 | 0.00 | 0.00 | 0.00 | 94 | 1009.0 |
| 20260505114710 | 22 | 157 | 4.8 | 9.7 | 0.00 | 0.00 | 0.00 | 94 | 1009.2 |
| 20260505114206 | 22 | 140 | 3.2 | 4.8 | 0.00 | 0.00 | 0.00 | 94 | 1009.1 |
| 20260505113703 | 22 | 143 | 3.2 | 6.4 | 0.00 | 0.00 | 0.00 | 93 | 1009.1 |
| 20260505113200 | 22 | 154 | 3.2 | 6.4 | 0.00 | 0.00 | 0.00 | 93 | 1008.9 |
| 20260505112656 | 22 | 167 | 4.8 | 6.4 | 0.00 | 0.00 | 0.00 | 93 | 1008.8 |
| 20260505112154 | 22 | 160 | 1.6 | 3.2 | 0.00 | 0.00 | 0.00 | 93 | 1008.8 |
| 20260505111653 | 22 | 160 | 1.6 | 3.2 | 0.00 | 0.00 | 0.00 | 93 | 1009.1 |
| 20260505111149 | 22 | 157 | 3.2 | 3.2 | 0.00 | 0.00 | 0.00 | 93 | 1009.0 |
| 20260505110646 | 22 | 143 | 3.2 | 4.8 | 0.00 | 0.00 | 0.00 | 93 | 1009.2 |
| 20260505110143 | 22 | 159 | 1.6 | 1.6 | 0.00 | 0.00 | 0.00 | 93 | 1009.5 |